DateTimeUTC,F1_A11,F1_S11,BsB_S11,BsG_S11,BsR_S11,BbsB_S11,BbsG_S11,BbsR_S11,BaB_A11,BaG_A11,BaR_A11,Tu_S11,T_S11,Uu_S11,U_S11,P_S11,T1_A11
2021-07-27T04:00:00Z,00000200,20000000,,,,,,,-000.37,0000.12,-000.24,18.4,25.1,11.3,07.5,0681.8,31.0
2021-07-27T04:01:00Z,00000200,20000000,,,,,,,-000.02,-000.11,0000.01,18.4,25.1,11.1,07.4,0681.8,31.0
2021-07-27T04:02:00Z,00000200,20000000,,,,,,,-000.07,-000.19,-000.24,18.4,25.1,11.1,07.4,0681.8,31.0
2021-07-27T04:03:00Z,00000200,60000000,,,,,,,0000.49,0000.57,0000.57,18.4,25.1,11.1,07.4,0681.8,31.0
2021-07-27T04:04:00Z,00000200,40000000,0002.24,0001.12,0000.55,0000.37,0000.16,0000.01,0000.25,-000.10,0000.14,18.4,24.9,11.3,07.6,0682.7,31.0
2021-07-27T04:05:00Z,00000200,00000000,0001.47,0001.19,0000.73,0000.46,-000.09,0000.20,0000.45,0000.73,0000.02,18.5,24.9,11.3,07.7,0682.8,31.0
2021-07-27T04:06:00Z,00000200,00000000,0002.40,0001.00,0000.38,0000.13,-000.09,0000.50,-000.12,0000.03,0000.34,18.5,24.8,11.3,07.6,0682.8,31.0
2021-07-27T04:07:00Z,00000200,00000000,0002.17,0001.01,0000.61,0000.40,0000.26,0000.40,0000.28,0000.43,0000.29,18.5,24.8,11.4,07.7,0682.8,31.0
2021-07-27T04:08:00Z,00000200,00000000,0001.73,0001.24,0001.02,0000.39,0000.19,0000.42,0000.41,0000.04,0000.01,18.5,24.8,11.4,07.7,0682.8,31.0
2021-07-27T04:09:00Z,00000200,00000000,0001.69,0001.53,0000.68,0000.29,0000.23,0000.10,0000.43,-000.06,0000.56,18.5,24.8,11.4,07.8,0682.8,31.0
2021-07-27T04:10:00Z,00000200,00000000,0003.41,0001.50,0000.87,0000.60,-000.05,0000.08,0000.73,0000.77,0000.25,18.5,24.8,11.4,07.7,0682.8,31.0
2021-07-27T04:11:00Z,00000200,00000000,0001.84,0001.28,0000.88,0000.20,0000.21,0000.10,-000.01,0000.23,0000.24,18.5,24.8,11.4,07.8,0682.8,31.0
2021-07-27T04:12:00Z,00000200,00000000,0001.53,0001.63,0001.07,-000.07,0000.34,0000.36,0000.64,0000.71,0000.38,18.6,24.8,11.4,07.8,0682.8,31.0
2021-07-27T04:13:00Z,00000200,00000000,0001.91,0001.68,0001.10,0000.37,0000.32,0000.21,0000.27,0000.38,0000.59,18.6,24.9,11.4,07.8,0682.8,31.1
2021-07-27T04:14:00Z,00000200,00000000,0003.13,0001.80,0001.31,0000.36,0000.33,0000.62,0000.47,0000.39,0000.36,18.6,24.9,11.5,07.9,0682.8,31.1
2021-07-27T04:15:00Z,00000200,00000000,0003.01,0002.10,0001.12,0000.22,0000.02,0000.29,0000.70,0000.58,0000.33,18.7,24.9,11.4,07.8,0682.8,31.1
2021-07-27T04:16:00Z,00000200,00000000,0004.01,0002.28,0001.44,0000.25,-000.10,0000.43,0000.29,0000.22,0000.32,18.7,24.9,11.5,07.8,0682.8,31.0
2021-07-27T04:17:00Z,00000200,00000000,0002.98,0001.97,0001.36,0000.39,0000.02,0000.28,0000.81,0000.68,0000.68,18.7,24.9,11.5,07.8,0682.8,31.1
2021-07-27T04:18:00Z,00000200,00000000,0001.90,0001.99,0001.01,0000.37,0000.21,0000.43,0000.54,0000.83,0000.43,18.7,24.9,11.4,07.8,0682.8,31.1
2021-07-27T04:19:00Z,00000200,00000000,0003.34,0002.27,0001.45,0000.51,0000.03,-000.04,0000.69,0000.36,0000.33,18.7,24.9,11.5,07.9,0682.8,31.0
2021-07-27T04:20:00Z,00000200,00000000,0002.55,0002.14,0001.76,0000.78,0000.08,0000.08,-000.06,0000.21,0000.36,18.6,24.9,11.5,07.9,0682.8,31.0
2021-07-27T04:21:00Z,00000200,00000000,0003.88,0002.72,0001.69,0000.64,-000.11,0000.38,0000.77,0000.55,0000.05,18.6,24.9,11.6,07.9,0682.8,31.0
2021-07-27T04:22:00Z,00000200,00000000,0003.20,0002.38,0001.62,0000.60,0000.24,0000.62,0000.92,0000.44,0000.71,18.6,24.9,11.5,07.9,0682.9,31.0
2021-07-27T04:23:00Z,00000200,00000000,0002.76,0002.21,0001.51,0000.95,0000.23,0000.05,0000.33,0000.68,0000.35,18.6,24.9,11.6,07.9,0682.8,31.0
2021-07-27T04:24:00Z,00000200,00000000,0003.15,0002.29,0001.44,0000.34,0000.17,0000.26,0000.60,0000.40,0000.63,18.6,24.8,11.6,07.9,0682.9,31.0
2021-07-27T04:25:00Z,00000200,00000000,0003.08,0002.45,0001.38,0000.41,0000.34,0000.45,0000.33,0000.55,0000.48,18.6,24.8,11.7,08.0,0682.9,31.0
2021-07-27T04:26:00Z,00000200,00000000,0003.04,0002.53,0001.35,0000.78,0000.40,0000.51,0000.52,0000.23,0000.19,18.6,24.8,11.6,07.9,0682.9,31.0
2021-07-27T04:27:00Z,00000200,00000000,0003.12,0001.96,0001.28,0000.31,0000.18,0000.18,0000.32,0000.73,0000.31,18.6,24.8,11.6,08.0,0682.9,31.0
2021-07-27T04:28:00Z,00000200,00000000,0003.40,0002.24,0001.26,0000.53,0000.02,0000.42,0000.63,0000.36,0000.52,18.5,24.8,11.7,08.0,0682.9,31.0
2021-07-27T04:29:00Z,00000200,00000000,0002.96,0001.89,0001.26,0000.39,-000.01,0000.34,0000.63,0000.56,0000.57,18.5,24.8,11.6,08.0,0682.9,31.0
2021-07-27T04:30:00Z,00000200,00000000,0002.77,0001.98,0000.85,0000.30,0000.65,0000.22,0000.35,0000.42,0000.45,18.5,24.8,11.7,08.0,0683.0,31.0
2021-07-27T04:31:00Z,00000200,00000000,0002.47,0001.73,0001.15,0000.68,0000.08,0000.07,0000.43,0000.26,0000.12,18.5,24.8,11.7,08.0,0683.0,31.0
2021-07-27T04:32:00Z,00000200,00000000,0002.87,0002.00,0001.43,0000.96,0000.32,0000.51,0000.59,0000.64,0000.39,18.5,24.8,11.7,08.0,0683.0,31.0
2021-07-27T04:33:00Z,00000200,00000000,0002.87,0001.94,0001.14,0000.45,0000.25,0000.49,0000.31,0000.33,0000.23,18.5,24.8,11.7,08.0,0683.0,31.0
2021-07-27T04:34:00Z,00000200,00000000,0002.33,0001.95,0001.05,0000.23,-000.04,0000.22,0000.25,-000.09,0000.15,18.5,24.8,11.8,08.0,0683.0,31.0
2021-07-27T04:35:00Z,00000200,00000000,0002.76,0001.84,0001.17,0000.78,0000.27,0000.50,0000.55,0000.35,0000.26,18.5,24.8,11.8,08.0,0683.0,31.0
2021-07-27T04:36:00Z,00000200,00000000,0003.57,0001.91,0000.89,0000.35,0000.09,0000.24,0000.31,0000.77,0000.65,18.5,24.8,11.8,08.1,0683.0,31.0
2021-07-27T04:37:00Z,00000200,00000000,0003.29,0002.09,0001.29,0000.22,0000.13,0000.44,0000.53,0000.78,0000.30,18.5,24.7,11.7,08.0,0683.0,31.0
2021-07-27T04:38:00Z,00000200,00000000,0002.90,0002.05,0001.27,0000.43,-000.01,0000.40,0000.58,0000.44,0000.24,18.5,24.8,11.8,08.0,0683.1,31.0
2021-07-27T04:39:00Z,00000200,00000000,0003.41,0002.01,0001.11,0000.37,0000.33,0000.13,0000.33,0000.19,0000.74,18.5,24.7,11.7,08.0,0683.1,31.0
2021-07-27T04:40:00Z,00000200,00000000,0002.49,0001.63,0000.98,0000.30,0000.03,0000.19,0000.57,0000.73,0000.32,18.5,24.7,11.8,08.0,0683.0,31.0
2021-07-27T04:41:00Z,00000200,00000000,0002.50,0001.83,0001.26,0001.01,0000.20,0000.03,0000.36,0000.07,0000.31,18.5,24.7,11.7,08.0,0683.1,31.0
2021-07-27T04:42:00Z,00000200,00000000,0002.82,0001.28,0000.84,0000.88,0000.24,0000.58,0001.00,0001.00,0000.57,18.6,24.8,11.7,08.0,0683.0,31.1
2021-07-27T04:43:00Z,00000200,00000000,0002.15,0001.70,0001.12,0000.52,0000.23,0000.36,0000.08,-000.19,0000.23,18.7,24.8,11.7,08.0,0683.1,31.1
2021-07-27T04:44:00Z,00000200,00000000,0002.88,0001.70,0000.95,0000.24,0000.20,-000.20,0000.44,0000.58,0000.45,18.7,24.9,11.5,07.9,0683.1,31.1
2021-07-27T04:45:00Z,00000200,00000000,0002.68,0001.28,0000.79,0000.48,0000.17,0000.22,0000.38,0000.56,-000.04,18.8,24.9,11.5,07.9,0683.0,31.1
2021-07-27T04:46:00Z,00000200,00000000,0002.35,0001.31,0001.21,0000.10,0000.45,0000.38,0000.34,0000.13,0000.27,18.8,24.9,11.5,07.9,0683.0,31.1
2021-07-27T04:47:00Z,00000200,00000000,0002.91,0001.93,0000.93,0000.60,0000.09,0000.47,0000.61,0000.53,0000.48,18.8,24.9,11.6,08.0,0683.0,31.1
2021-07-27T04:48:00Z,00000200,00000000,0002.35,0001.23,0000.99,0000.64,-000.03,0000.40,0000.00,0000.39,0000.32,18.7,24.9,11.5,07.9,0683.0,31.0
2021-07-27T04:49:00Z,00000200,00000000,0002.64,0001.89,0001.09,0000.64,0000.10,0000.15,0000.69,-000.04,0000.40,18.7,24.9,11.6,07.9,0683.1,31.0
2021-07-27T04:50:00Z,00000200,00000000,0002.59,0001.64,0001.00,-000.16,0000.23,0000.15,0000.30,0000.30,-000.05,18.7,24.9,11.6,08.0,0683.1,31.0
2021-07-27T04:51:00Z,00000200,00000000,0001.72,0001.21,0000.80,0000.70,-000.02,0000.45,0000.47,0000.77,0000.49,18.7,24.8,11.6,07.9,0683.1,31.0
2021-07-27T04:52:00Z,00000200,00000000,0002.17,0001.29,0000.69,-000.31,-000.01,0000.01,0000.49,0000.40,0000.34,18.7,24.8,11.6,07.9,0683.1,31.0
2021-07-27T04:53:00Z,00000200,00000000,0003.09,0001.92,0001.27,0000.15,0000.21,0000.35,0000.48,0000.19,0000.63,18.7,24.8,11.7,08.0,0683.1,31.0
2021-07-27T04:54:00Z,00000200,00000000,0001.97,0001.45,0000.92,0000.47,0000.14,0000.46,0000.21,0000.54,0000.21,18.7,24.8,11.6,07.9,0683.1,31.0
2021-07-27T04:55:00Z,00000200,00000000,0001.38,0001.16,0000.65,0000.67,0000.07,0000.18,0000.54,0000.33,0000.26,18.7,24.8,11.7,08.0,0683.1,31.0
2021-07-27T04:56:00Z,00000200,00000000,0002.54,0001.39,0000.76,0000.42,0000.37,0000.20,0000.12,0000.23,0000.48,18.7,24.8,11.6,08.0,0683.1,31.0
2021-07-27T04:57:00Z,00000200,40000000,,,,,,,0000.14,0000.43,-000.02,18.8,24.9,11.3,07.8,0683.0,31.1
2021-07-27T04:58:00Z,00000200,60000000,,,,,,,0000.17,0000.11,-000.16,18.6,25.0,11.6,07.8,0682.1,31.0
2021-07-27T04:59:00Z,00000200,20000000,,,,,,,-000.29,-000.36,-000.05,18.6,25.1,11.6,07.8,0682.1,31.1
